Wautoma, WI

6:26 PM CDT on March 25, 2017 (GMT -0500)
Wautoma

Weather History for KY50 - October, 2012

Change the Weather History Date:

Sunday, October 7, 2012

  Actual Average (KPCZ) Record (KPCZ)
Temperature  
Mean Temperature 39 °F -  
Max Temperature 50 °F 61 °F 84 °F (2007)
Min Temperature 27 °F 39 °F 22 °F (1953)
Degree Days  
Heating Degree Days 26    
Moisture  
Dew Point 20 °F    
Average Humidity 50    
Maximum Humidity 78    
Minimum Humidity 24    
Precipitation  
Precipitation 0.00 in - - ()
Sea Level Pressure  
Sea Level Pressure 30.13 in    
Wind  
Wind Speed 3 mph (West)    
Max Wind Speed 14 mph    
Max Gust Speed 17 mph    
Visibility 10 miles    
Events      
Averages and records for this station are not official NWS values.
T = Trace of Precipitation, MM = Missing Value Source: NWS Daily Summary

Daily Weather History Graph

Daily Weather History Graph

Search for Another Location

Airport or City:

Trip Planner

Search our weather history database for the weather conditions in past years. The results will help you decide how hot, cold, wet, or windy it might be!

Date:

Astronomy

Oct. 07, 2012 Rise Set
Actual Time 7:02 AM CDT 6:26 PM CDT
Civil Twilight 6:33 AM CDT 6:55 PM CDT
Nautical Twilight 6:00 AM CDT 7:28 PM CDT
Astronomical Twilight 5:26 AM CDT 8:02 PM CDT
Moon 11:29 PM CDT (10/7) 1:48 PM CDT (10/7)
Length of Visible Light 12h 21m
Length of Day
11h 23m
Waning Gibbous, 56% of the Moon is Illuminated
Oct 7
Waning Gibbous
Oct 8
Last Quarter
Oct 15
New
Oct 21
First Quarter
Oct 29
Full

Hourly Weather History & Observations

Time (CDT) Temp. Windchill Dew Point Humidity Pressure Visibility Wind Dir Wind Speed Gust Speed Precip Events Conditions
12:56 AM 37.9 °F - 23.0 °F 55% 30.19 in 10.0 mi Calm Calm - N/A   Mostly Cloudy
1:56 AM 36.9 °F - 25.2 °F 63% 30.19 in 10.0 mi Calm Calm - N/A   Overcast
2:56 AM 36.0 °F - 26.1 °F 67% 30.18 in 10.0 mi Calm Calm - N/A   Overcast
3:56 AM 36.0 °F - 26.1 °F 67% 30.18 in 10.0 mi Calm Calm - N/A   Overcast
4:56 AM 36.0 °F - 25.2 °F 65% 30.18 in 10.0 mi Calm Calm - N/A   Overcast
5:56 AM 36.0 °F - 26.1 °F 67% 30.17 in 10.0 mi Calm Calm - N/A   Overcast
6:56 AM 34.0 °F - 25.2 °F 70% 30.17 in 10.0 mi Calm Calm - N/A   Overcast
7:56 AM 34.9 °F - 25.2 °F 68% 30.18 in 10.0 mi Calm Calm - N/A   Overcast
8:56 AM 41.0 °F 36.4 °F 22.1 °F 47% 30.18 in 10.0 mi NW 6.9 mph - N/A   Clear
9:56 AM 43.9 °F 38.3 °F 16.2 °F 33% 30.18 in 10.0 mi WNW 10.4 mph - N/A   Clear
10:56 AM 45.9 °F 40.0 °F 17.1 °F 32% 30.17 in 10.0 mi WNW 12.7 mph - N/A   Scattered Clouds
11:56 AM 46.9 °F - 16.2 °F 29% 30.16 in 10.0 mi SW 8.1 mph - N/A   Partly Cloudy
12:56 PM 47.8 °F - 16.2 °F 28% 30.13 in 10.0 mi Calm Calm - N/A   Clear
1:56 PM 50.0 °F - 16.2 °F 26% 30.11 in 10.0 mi West 13.8 mph - N/A   Partly Cloudy
2:56 PM 50.9 °F - 16.2 °F 25% 30.09 in 10.0 mi SW 10.4 mph - N/A   Partly Cloudy
3:56 PM 50.9 °F - 15.1 °F 24% 30.07 in 10.0 mi WSW 13.8 mph 17.3 mph N/A   Clear
4:56 PM 50.0 °F - 15.1 °F 25% 30.06 in 10.0 mi West 10.4 mph - N/A   Clear
5:56 PM 46.9 °F - 15.1 °F 28% 30.06 in 10.0 mi West 8.1 mph - N/A   Clear
6:56 PM 41.9 °F - 17.1 °F 37% 30.06 in 10.0 mi Calm Calm - N/A   Clear
7:56 PM 34.9 °F - 21.0 °F 57% 30.07 in 10.0 mi Calm Calm - N/A   Clear
8:56 PM 32.0 °F - 22.1 °F 67% 30.08 in 10.0 mi Calm Calm - N/A   Clear
9:56 PM 29.1 °F - 19.0 °F 66% 30.09 in 10.0 mi Calm Calm - N/A   Clear
10:56 PM 28.0 °F - 20.1 °F 72% 30.08 in 10.0 mi Calm Calm - N/A   Clear
11:56 PM 27.1 °F - 21.0 °F 78% 30.07 in 10.0 mi Calm Calm - N/A   Clear